Kolob Reservoir Weather Center

Moon Phase Calendar



Kolob Reservoir Water Level
Online Cameras

 


      

Current Conditions in Cedar City
5/12/2021 9:01:30 AM

36°F
Feels Like 36
Clear
Humidity
17%
Pressure
30.09"
Wind
1 mph (SSE)
Dew Point
-1°F
UV Index
2/10 (Low)
Visibility
6 mi

Hourly Forecast

Date & Time Wed, May 12
9:00 AM
Wed, May 12
10:00 AM
Wed, May 12
11:00 AM
Wed, May 12
12:00 PM
Wed, May 12
1:00 PM
Wed, May 12
2:00 PM
Wed, May 12
3:00 PM
Wed, May 12
4:00 PM
Wed, May 12
5:00 PM
Wed, May 12
6:00 PM
Wed, May 12
7:00 PM
Wed, May 12
8:00 PM
Wed, May 12
9:00 PM
Wed, May 12
10:00 PM
Wed, May 12
11:00 PM
Thu, May 13
12:00 AM
Thu, May 13
1:00 AM
Thu, May 13
2:00 AM
Thu, May 13
3:00 AM
Thu, May 13
4:00 AM
Thu, May 13
5:00 AM
Thu, May 13
6:00 AM
Thu, May 13
7:00 AM
Thu, May 13
8:00 AM
Thu, May 13
9:00 AM
Thu, May 13
10:00 AM
Thu, May 13
11:00 AM
Thu, May 13
12:00 PM
Thu, May 13
1:00 PM
Thu, May 13
2:00 PM
Thu, May 13
3:00 PM
Thu, May 13
4:00 PM
Thu, May 13
5:00 PM
Thu, May 13
6:00 PM
Thu, May 13
7:00 PM
Thu, May 13
8:00 PM
Thu, May 13
9:00 PM
Thu, May 13
10:00 PM
Thu, May 13
11:00 PM
Fri, May 14
12:00 AM
Fri, May 14
1:00 AM
Fri, May 14
2:00 AM
Fri, May 14
3:00 AM
Fri, May 14
4:00 AM
Fri, May 14
5:00 AM
Fri, May 14
6:00 AM
Fri, May 14
7:00 AM
Fri, May 14
8:00 AM
Condition
Clear

Clear

Clear

Clear

Clear

Clear

Clear

Clear

Clear

Clear

Clear

Clear

Clear

Clear

Clear

Clear

Clear

Clear

Clear

Clear

Clear

Clear

Clear

Clear

Clear

Clear

Clear

Clear

Clear

Clear

Clear

Clear

Clear

Clear

Clear

Clear

Clear

Clear

Clear

Clear

Clear

Clear

Clear

Clouds

Clouds

Clouds

Clouds

Clouds
Temperature 36°F40°F44°F50°F56°F63°F64°F64°F63°F63°F62°F57°F51°F51°F50°F49°F49°F49°F48°F48°F47°F46°F48°F55°F59°F62°F64°F66°F67°F67°F68°F68°F68°F67°F65°F61°F55°F53°F52°F52°F51°F50°F49°F48°F48°F48°F49°F55°F
Feels Like 36°F40°F42°F48°F52°F59°F60°F61°F60°F60°F59°F54°F47°F46°F49°F49°F48°F48°F47°F47°F46°F45°F47°F51°F55°F58°F61°F62°F64°F64°F65°F65°F65°F64°F62°F57°F51°F49°F48°F47°F46°F50°F48°F47°F47°F46°F48°F52°F
Cloudiness 1%1%1%1%0%0%0%0%0%0%0%2%3%4%4%3%0%0%0%0%0%0%0%0%0%0%1%1%6%5%4%3%3%2%0%1%7%8%8%8%5%6%10%27%40%49%89%86%
Visibility 6 mi6 mi6 mi6 mi6 mi6 mi6 mi6 mi6 mi6 mi6 mi6 mi6 mi6 mi6 mi6 mi6 mi6 mi6 mi6 mi6 mi6 mi6 mi6 mi6 mi6 mi6 mi6 mi6 mi6 mi6 mi6 mi6 mi6 mi6 mi6 mi6 mi6 mi6 mi6 mi6 mi6 mi6 mi6 mi6 mi6 mi6 mi6 mi
Precipitation 0%0%0%0%0%0%0%0%0%0%0%0%0%0%0%0%0%0%0%0%0%0%0%0%0%0%0%0%0%0%0%0%0%0%0%0%0%0%0%0%0%0%0%0%0%0%0%0%
Humidity 17%16%16%15%14%14%14%14%14%14%15%22%22%22%22%22%21%21%21%22%23%23%25%21%18%17%16%15%14%14%13%13%13%14%15%20%20%20%19%19%19%19%20%21%21%21%24%21%
Dew Point -1°F1°F4°F7°F10°F14°F15°F15°F15°F15°F15°F20°F16°F15°F15°F14°F13°F13°F13°F13°F13°F12°F16°F18°F17°F18°F19°F19°F18°F18°F18°F17°F18°F18°F17°F20°F16°F15°F14°F12°F11°F11°F12°F12°F12°F12°F16°F17°F
Pressure 30.09"30.09"30.09"30.06"30.03"30.03"30"30"29.97"29.97"29.97"30"30.03"30.06"30.06"30.06"30.06"30.06"30.06"30.06"30.06"30.06"30.09"30.09"30.06"30.06"30.03"30.03"30"29.97"29.94"29.94"29.91"29.91"29.88"29.91"29.94"29.94"29.94"29.94"29.94"29.94"29.94"29.94"29.94"29.94"29.94"29.94"
Wind Speed 1 mph2.7 mph4 mph5.7 mph7 mph8 mph9.4 mph9.2 mph7.4 mph7.2 mph7.6 mph5.4 mph3.3 mph2.8 mph3.4 mph3.1 mph3.6 mph3.7 mph3.5 mph3.1 mph3 mph3.3 mph3.5 mph2.5 mph3.1 mph5.8 mph7.4 mph9.4 mph11.4 mph11.5 mph11.1 mph10.4 mph10.4 mph10.6 mph10.3 mph7.2 mph4.1 mph4 mph4 mph2.6 mph1.6 mph2.4 mph3.1 mph3.5 mph3.5 mph3.6 mph3.3 mph3.3 mph
Wind
Direction
154°
SSE
206°
SSW
225°
SW
236°
SW
243°
WSW
250°
WSW
268°
W
275°
W
267°
W
247°
WSW
239°
WSW
228°
SW
195°
SSW
136°
SE
107°
ESE
96°
E
89°
E
91°
E
100°
E
108°
ESE
131°
SE
119°
ESE
99°
E
106°
ESE
194°
SSW
225°
SW
228°
SW
221°
SW
216°
SW
215°
SW
218°
SW
224°
SW
232°
SW
235°
SW
241°
WSW
254°
WSW
291°
WNW
332°
NNW
358°
N
25°
NNE
93°
E
143°
SE
124°
SE
104°
ESE
97°
E
99°
E
106°
ESE
133°
SE

Daily Forecast

Date High Low Precip. Humidity
Today
May 12

Clear
64 °F
36 °F
0%
14%
Thursday
May 13

Clear
68 °F
46 °F
0%
14%
Friday
May 14

Clouds
68 °F
48 °F
0%
12%
Saturday
May 15

Clear
65 °F
46 °F
0%
17%
Sunday
May 16

Clear
55 °F
42 °F
0%
18%
Monday
May 17

Rain
51 °F
38 °F
75%
55%
Tuesday
May 18

Rain
60 °F
42 °F
74%
44%
Wednesday
May 19

Rain
62 °F
45 °F
65%
31%
Thursday
May 20

Clouds
64 °F
46 °F
20%
27%
Friday
May 21

Clouds
62 °F
44 °F
0%
29%
Saturday
May 22

Clouds
55 °F
43 °F
0%
45%
Sunday
May 23

Rain
53 °F
35 °F
33%
47%
Monday
May 24

Clear
57 °F
36 °F
0%
24%
Tuesday
May 25

Clear
54 °F
39 °F
0%
22%
Wednesday
May 26

Clear
60 °F
36 °F
0%
29%
Thursday
May 27

Clouds
68 °F
43 °F
0%
18%

Temperature 8-14 Day Outlook



Precipitation 8-14 Day Outlook




Quick Links
Kolob Reservoir News
Kolob Reservoir Photos
Kolob Reservoir Videos




About Us
Contact Us
Site Map
Search Site
Advertise With Us
   
Kolob.LakesOnline.com
THE KOLOB RESERVOIR WEBSITE

Copyright 2021, Lakes Online
Privacy    |    Legal